Regional Weather Roundup
Issued by NWS Upton, NY

Current Version | Previous Version | Text Only | Print | Product List | Glossary On
Versions: 1 2 3 4 5 6 7 8 9 10 11 12 13 14 15 16 17 18 19 20 21 22 23 24 25 26 27 28 29 30 31 32 33 34 35 36 37 38 39 40 41 42 43 44 45 46 47 48 49
000
ASUS41 KOKX 101504
RWROKX

REGIONAL WEATHER ROUNDUP
NATIONAL WEATHER SERVICE NEW YORK NY
1000 AM EST WED FEB 10 2016

NOTE: "FAIR" INDICATES FEW OR NO CLOUDS BELOW 12,000 FEET WITH NO
SIGNIFICANT WEATHER AND/OR OBSTRUCTIONS TO VISIBILITY.

NYZ071-072-176-178-NJZ106-104-101600-
NEW YORK CITY METRO AREA


CITY           SKY/WX    TMP DP  RH WIND       PRES   REMARKS
CENTRAL PARK   CLOUDY    35  28  75 VRB5      29.65R HAZE    WCI  31
LAGUARDIA APRT CLOUDY    36  28  73 W13G22    29.63R WCI  27
KENNEDY INTL   CLOUDY    35  30  82 W14       29.65R WCI  26
NEWARK/LIBERTY CLOUDY    33  29  85 W13       29.64S WCI  24
BRNX BOT. GARD   N/A     34  28  80 W16       29.64S WCI  23
TETERBORO      CLOUDY    36  28  73 W8        29.62S HAZE    WCI  30
$$

NYZ177-179-078>081-101600-
LONG ISLAND NEW YORK

CITY           SKY/WX    TMP DP  RH WIND       PRES   REMARKS
FARMINGDALE    CLOUDY    36  29  75 W8        29.62S WCI  30
ISLIP          LGT SNOW  33  29  85 W6        29.60S FOG     WCI  28
SHIRLEY        CLOUDY    33  31  92 CALM      29.62S FOG
RIVERHEAD        N/A     34  30  86 SW1       29.59F
WESTHAMPTON    LGT SNOW  32 N/A N/A CALM      29.62F
EAST HAMPTON   LGT SNOW  32  31  95 CALM      29.61S
MONTAUK POINT    N/A     35  33  92 CALM      29.61F
$$

NYZ052-065-067-101600-
HUDSON VALLEY

CITY           SKY/WX    TMP DP  RH WIND       PRES   REMARKS
WHITE PLAINS   CLOUDY    33  29  85 W9        29.59R FOG     WCI  25
NEWBURGH       PTSUNNY   34  30  86 W9        29.60R WCI  26
MONTGOMERY     CLOUDY    36  25  64 NW10      29.59  WCI  28
POUGHKEEPSIE   PTSUNNY   35  29  78 SW6       29.60S WCI  30
ALBANY         PTSUNNY   32  28  85 S5        29.58S FOG     WCI  27
$$

NJZ001-105-106-008-010-013-015-019>022-104-101600-
NEW JERSEY

CITY           SKY/WX    TMP DP  RH WIND       PRES   REMARKS
NEWARK/LIBERTY CLOUDY    33  29  85 W13       29.64S WCI  24
TETERBORO      CLOUDY    36  28  73 W8        29.62S HAZE    WCI  30
CALDWELL       CLOUDY    34  27  75 W9        29.64R WCI  27
MORRISTOWN       N/A     34  28  80 W9G18     29.65R WCI  26
SOMERVILLE     CLOUDY    33  25  72 W9        29.65R WCI  25
SUSSEX         PTSUNNY   32  27  81 SW5       29.61S WCI  27
ANDOVER          N/A     33  24  69 CALM      29.62S
TRENTON        LGT SNOW  31  26  82 W10       29.68S WCI  22
MILLVILLE      LGT SNOW  31  27  85 W15       29.74S FOG     WCI  20
ATLANTIC CITY  LGT SNOW  31  27  85 W17       29.71R FOG     WCI  19
WRIGHTSTOWN    FLURRIES  32  32 100 W14       29.66S WCI  22
TOMS RIVER     CLOUDY    30  27  86 W13G23    29.68S WCI  20
BELMAR         CLOUDY    32  23  69 W15G21    29.66R WCI  22
$$

PAZ047>061-062-071-101600-
EASTERN PENNSYLVANIA

CITY           SKY/WX    TMP DP  RH WIND       PRES   REMARKS
PHILADELPHIA   CLOUDY    32  25  75 W17       29.73S WCI  21
ALLENTOWN      PTSUNNY   33  22  63 W13       29.67R WCI  24
SCRANTON       CLOUDY    29  22  75 SW12      29.62R WCI  19
$$

CTZ002-004>006-009-010-012-RIZ004-006-007-MAZ004-011-015-101600-
SOUTHERN NEW ENGLAND
 IN CT

CITY           SKY/WX    TMP DP  RH WIND       PRES   REMARKS
BRADLEY INTL   LGT SNOW  29  27  92 S3        29.59S FOG
HARTFORD       CLOUDY    31  29  92 S5        29.61S FOG     WCI  26
DANBURY        LGT SNOW  32  26  78 VRB5      29.60R VSB 1   WCI  27
WTRBRY/OXFORD  LGT SNOW  30  21  69 CALM      29.58S FOG
BRIDGEPORT     CLOUDY    34  30  85 W5        29.61S FOG     WCI  30
MERIDEN        CLOUDY    31  28  89 CALM      29.60S FOG
NEW HAVEN      CLOUDY    32  32 100 CALM      29.61S FOG
CHESTER        CLOUDY    32  32 100 S3        29.59F FOG
GROTON         LGT SNOW  32  32 100 CALM      29.61S FOG
WILLIMANTIC    LGT SNOW  26  23  88 CALM      29.61S VSB 3/4

 IN RI

CITY           SKY/WX    TMP DP  RH WIND       PRES   REMARKS
PROVIDENCE     LGT SNOW  30  27  88 CALM      29.62S FOG
BLOCK ISLAND   CLOUDY    34  32  93 CALM      29.59S
WESTERLY       LGT SNOW  31  29  92 N3        29.61F FOG

 IN MA

CITY           SKY/WX    TMP DP  RH WIND       PRES   REMARKS
BOSTON         LGT SNOW  28  25  88 S6        29.62S FOG     WCI  22
WORCESTER      LGT SNOW  26  24  92 SW7       29.55S FOG     WCI  18
WESTFIELD      SNOW      26  24  92 CALM      29.59S VSB 1/2
PROVINCETOWN   LGT RAIN  33  27  78 VRB7      29.63F WCI  27
NANTUCKET      LGT SNOW  35  30  82 NE5       29.61F WCI  31
$$

ANZ330-335-338-340-345-350-353-355-101600-
COASTAL MARINE OBSERVATIONS


STATION/POSITION TIME  SKY/WX   TEMP    WIND        PRES    VSBY  WAVE
                                AIR SEA DIR/SP/G                  HT/PER
                 (UTC)          (F)     (DEG/KT/KT) (MB)    (MI)  (FT/S)
NY HARB ENTRANCE 1350            35 43  280/ 17/ 21 1002.4          4/13
4S FIRE IS       NOT AVBL
20S FIRE ISLAND  1350            36 44  290/ 12/ 16 1002.7          4/11
GREAT SOUTH BAY  NOT AVBL
23SW MTP         1450            35 45  230/  4/  8 1002.1          5/11
HUDSON CANYON    1350            36 49              1002.5          7/10
KINGS POINT      1400            35 38  320/  8/ 10 1002.6
EXECUTION ROCKS  NOT AVBL
CENTRAL LI SOUND 1400            33     200/  6/  8   N/A           0
EASTERN LI SOUND 1400            33 42   20/  4/  6   N/A
ROBBINS REEF     1400            33     270/ 14/ 17 1002.7
$$


>>>>>>>>>>>>>>>>>>>>>>>>>>>> KEY <<<<<<<<<<<<<<<<<<<<<<<<<<<
>                                                          <
>     SKY/WX - SKY CONDITION/PRESENT WEATHER               <
>     TMP    - TEMPERATURE IN FAHRENHEIT                   <
>     DP     - DEWPOINT IN FAHRENHEIT                      <
>     RH     - RELATIVE HUMIDITY IN PERCENT                <
>     WIND   - DIRECTION AND SPEED IN MPH                  <
>     PRES   - MEAN SEA LEVEL PRESSURE IN INCHES OF HG     <
>     WCI    - WIND CHILL INDEX                            <
>     VSB    - VISIBILITY IN MILES                         <
>     HX     - HEAT INDEX                                  <
>     TC     - TEMPERATURE IN CELSIUS                      <
>     VRB    - VARIABLE WIND DIRECTION                     <
>                                                          <
>>>>>>>>>>>>>>>>>>>>>>>>>>>> KEY <<<<<<<<<<<<<<<<<<<<<<<<<<<





USA.gov is the U.S. government's official web portal to all federal, state and local government web resources and services.